STARLINK-1716

operational
NORAD ID: 46672 Int'l Des: 2020-073 Owner: SPXS Country: US Constellation: starlink
LEOCIRCULARSTARLINK_TYPE

STARLINK-1716について

説明を読み込み中...

リアルタイム位置

3D地球を読み込み中...

次回通過

高度履歴

Altitude vs Time

uPlot chart will show altitude changes over time

軌道要素

1 46672U 20073C 25251.56840083 .00003821 00000-0 27525-3 0 9994
2 46672 53.0569 339.1982 0001622 97.4845 262.6329 15.06407081269681
Epoch: Sep 8, 2025 • Age: 21 hours

現在のステータス

高度 548.3 km
速度 7.59 km/s
衛星直下点 -0.32°S, 168.73°W
打ち上げ日 Oct 18, 2020
運用期間 4.8 years
タイプ internet

技術仕様

分類 Payload
質量 260.00 kg
乾燥質量 248.00 kg
総質量 260.00 kg
長さ 0.20 m
直径 2.80 m
スパン 9.00 m
形状 Box + pan
製造者 SPXS
バスタイプ Starlink
フェーズステータス In Orbit
所有者/国 SPXS/US

大規模コンステレーション

Loading constellations...